Location: ????????
(55.0808°N, 38.5463°E)
Time: 02:18:23
(UTC+00:00)

Nimbus 3 Rocket - Pass Details

Date: 28 September 2024
Orbit: 1072 x 1131 km, 99.9° (Epoch: 03 October)

Event Time Altitude Azimuth Distance (km) Brightness Sun altitude
Rises 23:16:56 0° 17° (NNE) 3,905 9.1 -32.0°
Reaches altitude 10° 23:19:43 10° 9° (N) 2,938 8.2 -31.8°
Maximum altitude 23:25:31 34° 308° (NW) 1,699 6.2 -31.3°
Enters shadow 23:25:33 34° 307° (NW) 1,699 6.2 -31.3°
